South Haven, MI

1:10 AM EDT on August 27, 2016 (GMT -0400)
South Haven

Weather History for KLWA - October, 2012

Change the Weather History Date:

Saturday, October 13, 2012

  Actual Average (KBIV) Record (KBIV)
Temperature  
Mean Temperature 50 °F 54 °F  
Max Temperature 66 °F 63 °F 81 °F (1956)
Min Temperature 35 °F 44 °F 24 °F (1993)
Degree Days  
Heating Degree Days 14 12  
Month to date heating degree days 132  
Since 1 July heating degree days 262  
Cooling Degree Days 0 0  
Month to date cooling degree days 10  
Year to date cooling degree days 692  
Moisture  
Dew Point 44 °F    
Average Humidity 84    
Maximum Humidity 99    
Minimum Humidity 60    
Precipitation  
Precipitation 0.00 in 0.12 in 1.73 in (1969)
Month to date precipitation 1.37  
Year to date precipitation 28.48  
Sea Level Pressure  
Sea Level Pressure 30.07 in    
Wind  
Wind Speed 6 mph (SSE)    
Max Wind Speed 13 mph    
Max Gust Speed 25 mph    
Visibility 8 miles    
Events Rain    
T = Trace of Precipitation, MM = Missing Value Source: NWS Daily Summary

Daily Weather History Graph

Daily Weather History Graph

Search for Another Location

Airport or City:

Trip Planner

Search our weather history database for the weather conditions in past years. The results will help you decide how hot, cold, wet, or windy it might be!

Date:

Astronomy

Oct. 13, 2012 Rise Set
Actual Time 7:56 AM EDT 7:05 PM EDT
Civil Twilight 7:27 AM EDT 7:33 PM EDT
Nautical Twilight 6:55 AM EDT 8:06 PM EDT
Astronomical Twilight 6:22 AM EDT 8:38 PM EDT
Moon 5:43 AM EDT (10/13) 5:50 PM EDT (10/13)
Length of Visible Light 12h 05m
Length of Day
11h 09m
Waning Crescent, 5% of the Moon is Illuminated
Oct 13
Waning Crescent
Oct 15
New
Oct 21
First Quarter
Oct 29
Full
Nov 6
Last Quarter

Hourly Weather History & Observations

Time (EDT) Temp. Windchill Dew Point Humidity Pressure Visibility Wind Dir Wind Speed Gust Speed Precip Events Conditions
12:15 AM 36.1 °F 31.4 °F 30.2 °F 79% 30.31 in 10.0 mi ESE 5.8 mph - N/A   Clear
12:35 AM 37.8 °F - 30.2 °F 74% 30.31 in 10.0 mi Calm Calm - N/A   Clear
12:55 AM 35.6 °F - 30.4 °F 81% 30.31 in 10.0 mi Calm Calm - N/A   Clear
1:15 AM 37.9 °F 35.5 °F 29.5 °F 72% 30.30 in 10.0 mi ESE 3.5 mph - N/A   Clear
1:55 AM 38.7 °F 35.2 °F 29.7 °F 70% 30.29 in 10.0 mi SE 4.6 mph - N/A   Clear
2:36 AM 39.2 °F 35.0 °F 30.0 °F 70% 30.28 in 10.0 mi SE 5.8 mph - N/A   Clear
2:55 AM 39.6 °F 37.4 °F 30.4 °F 70% 30.28 in 10.0 mi SE 3.5 mph - N/A   Clear
3:15 AM 40.3 °F 35.5 °F 30.9 °F 69% 30.27 in 10.0 mi SE 6.9 mph - N/A   Clear
3:35 AM 41.0 °F 37.1 °F 31.6 °F 69% 30.27 in 10.0 mi SE 5.8 mph - N/A   Clear
3:55 AM 41.5 °F 38.6 °F 32.0 °F 69% 30.26 in 10.0 mi SSE 4.6 mph - N/A   Clear
4:15 AM 42.1 °F 37.7 °F 32.0 °F 67% 30.26 in 10.0 mi SE 6.9 mph - N/A   Clear
4:35 AM 42.6 °F 38.4 °F 32.0 °F 66% 30.23 in 10.0 mi SE 6.9 mph - N/A   Clear
4:55 AM 43.2 °F 38.4 °F 32.0 °F 65% 30.23 in 10.0 mi SE 8.1 mph - N/A   Clear
5:15 AM 43.3 °F 38.1 °F 32.0 °F 64% 30.21 in 10.0 mi SE 9.2 mph - N/A   Clear
5:35 AM 43.7 °F 39.7 °F 32.2 °F 64% 30.21 in 10.0 mi SE 6.9 mph - N/A   Clear
5:55 AM 44.2 °F 40.3 °F 32.2 °F 63% 30.20 in 10.0 mi SE 6.9 mph - N/A   Mostly Cloudy
6:16 AM 44.4 °F 40.0 °F 32.5 °F 63% 30.19 in 10.0 mi SE 8.1 mph - N/A   Overcast
6:35 AM 44.6 °F 39.7 °F 32.5 °F 63% 30.17 in 10.0 mi SE 9.2 mph - N/A   Overcast
6:55 AM 45.0 °F 40.6 °F 32.5 °F 62% 30.18 in 10.0 mi SE 8.1 mph - N/A   Overcast
7:15 AM 45.5 °F 41.8 °F 32.2 °F 60% 30.18 in 10.0 mi SE 6.9 mph - N/A   Overcast
7:35 AM 45.7 °F 42.0 °F 32.7 °F 61% 30.19 in 10.0 mi SE 6.9 mph - N/A Rain Light Rain
7:55 AM 44.2 °F 41.0 °F 36.1 °F 73% 30.19 in 5.0 mi SE 5.8 mph - N/A Rain Rain
8:15 AM 43.0 °F 40.3 °F 38.3 °F 84% 30.18 in 2.0 mi SE 4.6 mph - N/A   Unknown
8:35 AM 42.4 °F 38.1 °F 39.7 °F 90% 30.17 in 4.0 mi SE 6.9 mph - N/A   Unknown
8:55 AM 43.2 °F 39.7 °F 40.1 °F 89% 30.17 in 10.0 mi ESE 5.8 mph - N/A Rain Light Rain
9:15 AM 43.7 °F 42.1 °F 40.1 °F 87% 30.19 in 10.0 mi East 3.5 mph - N/A   Overcast
9:55 AM 42.8 °F - 40.6 °F 92% 30.17 in 10.0 mi Calm Calm - N/A Rain Light Rain
10:35 AM 43.0 °F 38.2 °F 41.4 °F 94% 30.13 in 5.0 mi ESE 8.1 mph - N/A Rain Light Rain
10:55 AM 43.5 °F 38.9 °F 41.9 °F 94% 30.12 in 10.0 mi ESE 8.1 mph - N/A   Overcast
11:35 AM 45.5 °F 41.8 °F 43.0 °F 91% 30.08 in 10.0 mi ESE 6.9 mph - N/A   Overcast
11:55 AM 46.4 °F 41.9 °F 43.5 °F 90% 30.07 in 10.0 mi SE 9.2 mph - N/A   Mostly Cloudy
12:15 PM 46.9 °F - 43.3 °F 87% 30.05 in 10.0 mi SE 5.8 mph - N/A   Mostly Cloudy
12:35 PM 47.7 °F - 43.9 °F 87% 30.04 in 10.0 mi SE 5.8 mph - N/A   Overcast
12:55 PM 48.7 °F - 44.1 °F 84% 30.03 in 10.0 mi South 10.4 mph - N/A   Overcast
1:36 PM 49.5 °F - 45.0 °F 84% 30.00 in 10.0 mi South 9.2 mph - N/A Rain Light Rain
2:15 PM 49.3 °F - 46.9 °F 92% 29.99 in 1.8 mi South 6.9 mph - N/A   Unknown
2:35 PM 49.8 °F - 47.8 °F 93% 29.97 in 7.0 mi South 8.1 mph - N/A Rain Light Rain
2:55 PM 50.5 °F - 49.1 °F 95% 29.95 in 5.0 mi South 8.1 mph - N/A Rain Light Rain
3:15 PM 51.3 °F - 50.2 °F 96% 29.93 in 4.0 mi SSE 8.1 mph - N/A Rain Rain
3:35 PM 52.7 °F - 51.6 °F 96% 29.93 in 5.0 mi South 12.7 mph 18.4 mph N/A Rain Light Rain
3:55 PM 54.5 °F - 53.1 °F 95% 29.92 in 7.0 mi South 10.4 mph 17.3 mph N/A Rain Light Rain
4:15 PM 55.6 °F - 54.1 °F 95% 29.92 in 10.0 mi South 8.1 mph - N/A   Overcast
4:35 PM 55.9 °F - 54.7 °F 96% 29.91 in 7.0 mi South 8.1 mph - N/A Rain Rain
4:55 PM 57.2 °F - 55.8 °F 95% 29.90 in 10.0 mi South 6.9 mph 17.3 mph N/A   Light Drizzle
5:16 PM 57.2 °F - 55.8 °F 95% 29.89 in 7.0 mi South 5.8 mph - N/A   Overcast
5:35 PM 57.4 °F - 56.3 °F 96% 29.89 in 7.0 mi South 3.5 mph - N/A   Overcast
5:55 PM 57.7 °F - 56.8 °F 97% 29.88 in 4.0 mi SSE 3.5 mph - N/A Rain Light Rain
6:15 PM 57.7 °F - 56.8 °F 97% 29.87 in 4.0 mi SE 4.6 mph - N/A Rain Light Rain
6:55 PM 58.1 °F - 57.4 °F 97% 29.86 in 3.0 mi SSE 3.5 mph - N/A   Drizzle
7:15 PM 58.3 °F - 57.6 °F 97% 29.85 in 4.0 mi South 4.6 mph - N/A   Overcast
7:35 PM 58.5 °F - 58.1 °F 99% 29.84 in 4.0 mi SSE 4.6 mph - N/A   Overcast
7:55 PM 59.0 °F - 58.5 °F 98% 29.84 in 1.2 mi South 5.8 mph - N/A Rain Heavy Rain
8:35 PM 63.3 °F - 62.4 °F 97% 29.85 in 5.0 mi SSW 10.4 mph - N/A   Overcast
8:55 PM 64.6 °F - 63.0 °F 94% 29.86 in 5.0 mi WSW 11.5 mph 18.4 mph N/A   Overcast
9:35 PM 64.4 °F - 63.0 °F 95% 29.86 in 4.0 mi SW 11.5 mph 18.4 mph N/A   Overcast
10:15 PM 65.3 °F - 63.7 °F 94% 29.86 in 4.0 mi SSW 10.4 mph - N/A Rain Light Rain
10:35 PM 66.4 °F - 63.5 °F 90% 29.85 in 5.0 mi WSW 11.5 mph 25.3 mph N/A   Overcast
10:55 PM 66.0 °F - 63.5 °F 92% 29.85 in 5.0 mi SW 10.4 mph 17.3 mph N/A   Overcast
11:14 PM 66.2 °F - 64.0 °F 93% 29.84 in 5.0 mi SSW 6.9 mph - N/A   Overcast